FW7227 Weather Reports


time (UTC)temp
C
wind
direction
speed
KPH
gust
KPH
rain 1hr
cm
rain 24hr
cm
rain mn
cm
humidity
%
barometer
mb
20260905012558 14 240 11.3 24.1 0.00 1.40 0.00 85 1013.8
20260905012058 14 252 11.3 24.1 0.00 1.40 0.00 85 1013.8
20260905011602 14 245 11.3 24.1 0.00 1.40 0.00 85 1013.7
20260905011057 14 244 11.3 20.9 0.00 1.40 0.00 86 1013.8
20260905010601 14 250 9.7 22.5 0.00 1.40 0.00 86 1013.7
20260905010107 14 271 11.3 22.5 0.00 1.40 0.00 85 1013.8
20260905005557 14 268 11.3 22.5 0.00 1.40 0.00 85 1013.7
20260905005058 14 242 9.7 22.5 0.00 1.40 0.00 85 1013.8
20260905004606 14 287 9.7 20.9 0.00 1.40 0.00 85 1013.8
20260905004059 14 257 12.9 22.5 0.00 1.40 0.00 85 1013.7
20260905003557 14 259 14.5 22.5 0.00 1.40 0.00 85 1013.8
20260905003115 14 244 12.9 20.9 0.00 1.40 0.00 85 1013.7
20260905002558 14 259 11.3 24.1 0.00 1.40 0.00 85 1013.8
20260905002058 14 246 12.9 24.1 0.00 1.40 0.00 85 1013.7
20260905001600 14 256 11.3 24.1 0.00 1.40 0.00 85 1013.7
20260905001057 14 236 11.3 24.1 0.00 1.40 0.00 85 1013.7
20260905000558 14 250 9.7 22.5 0.00 1.40 0.00 85 1013.6
20260905000110 14 275 11.3 22.5 0.00 1.40 0.00 85 1013.6
20260904235557 14 283 11.3 25.7 0.00 1.40 0.00 85 1013.5
20260904235057 15 254 12.9 25.7 0.00 1.40 0.00 85 1013.6
20260904234607 15 257 12.9 25.7 0.00 1.40 0.00 85 1013.3
20260904234057 15 268 11.3 22.5 0.00 1.40 0.00 85 1013.3
20260904233557 15 265 11.3 22.5 0.00 1.40 0.00 85 1013.4
20260904233104 15 279 12.9 24.1 0.00 1.40 0.00 85 1013.3
20260904232558 15 265 11.3 27.4 0.00 1.40 0.00 85 1013.3
20260904232057 15 269 9.7 27.4 0.00 1.40 0.00 85 1013.3
20260904231600 15 256 12.9 25.7 0.00 1.40 0.00 85 1013.3
20260904231101 15 270 12.9 32.2 0.00 1.40 0.00 85 1013.2
20260904230558 15 271 16.1 32.2 0.00 1.40 0.00 85 1013.2
20260904230104 15 274 11.3 29.0 0.00 1.40 0.00 85 1013.1
20260904225557 15 260 14.5 24.1 0.00 1.40 0.00 85 1013.1
20260904225057 15 265 14.5 25.7 0.00 1.40 0.00 85 1013.0
20260904224605 15 256 12.9 25.7 0.00 1.40 0.00 85 1012.9
20260904224057 15 267 9.7 24.1 0.00 1.40 0.00 86 1012.9
20260904223557 15 261 11.3 25.7 0.00 1.40 0.00 86 1012.8
20260904223109 15 254 11.3 25.7 0.00 1.40 0.00 85 1012.7
20260904222557 15 230 14.5 27.4 0.00 1.40 0.00 85 1012.7
20260904222100 15 261 12.9 27.4 0.00 1.40 0.00 85 1012.7
20260904221615 15 287 14.5 27.4 0.00 1.40 0.00 86 1012.5
20260904221058 15 277 16.1 27.4 0.00 1.40 0.00 86 1012.5
20260904220558 15 267 12.9 27.4 0.00 1.40 0.00 87 1012.5
20260904220108 15 262 16.1 27.4 0.00 1.40 0.00 87 1012.3
20260904215558 15 261 9.7 24.1 0.00 1.47 1.40 87 1012.2
20260904215057 15 281 11.3 24.1 0.00 1.47 1.40 88 1012.2
20260904214609 15 260 11.3 24.1 0.00 1.47 1.40 88 1012.1
20260904214057 15 317 12.9 24.1 0.00 1.47 1.40 88 1012.0
20260904213557 15 265 12.9 22.5 0.00 1.47 1.40 88 1011.9
20260904213101 15 256 12.9 24.1 0.00 1.47 1.40 89 1011.8
20260904212558 15 261 8.0 24.1 0.00 1.47 1.40 89 1011.7
20260904212056 15 299 11.3 24.1 0.00 1.47 1.40 89 1011.6
20260904211605 15 292 9.7 24.1 0.00 1.47 1.40 89 1011.7
20260904211057 15 267 11.3 27.4 0.00 1.47 1.40 89 1011.7
20260904210559 15 265 9.7 27.4 0.00 1.47 1.40 89 1011.6
20260904210104 15 259 14.5 27.4 0.00 1.47 1.40 89 1011.4
20260904205558 15 274 12.9 27.4 0.00 1.47 1.40 89 1011.5
20260904205057 15 277 11.3 27.4 0.00 1.47 1.40 90 1011.3
20260904204608 15 267 12.9 25.7 0.00 1.47 1.40 90 1011.2
20260904204101 15 239 14.5 25.7 0.00 1.47 1.40 90 1011.2
20260904203558 16 264 9.7 24.1 0.00 1.47 1.40 90 1011.3
20260904203102 16 265 11.3 24.1 0.00 1.47 1.40 90 1011.2
20260904202557 16 267 16.1 24.1 0.00 1.47 1.40 90 1011.1
20260904202100 16 273 11.3 27.4 0.00 1.47 1.40 90 1011.1
20260904201604 16 293 11.3 27.4 0.00 1.47 1.40 90 1011.1
20260904201057 16 265 11.3 29.0 0.00 1.47 1.40 90 1011.0
20260904200556 16 263 14.5 29.0 0.00 1.47 1.40 90 1011.0
20260904200116 16 263 12.9 29.0 0.00 1.47 1.40 90 1010.9
20260904195557 16 253 12.9 25.7 0.00 1.47 1.40 91 1010.9
20260904195058 16 271 12.9 27.4 0.00 1.47 1.40 91 1010.8
20260904194605 16 257 14.5 27.4 0.00 1.47 1.40 91 1010.7
20260904194057 16 284 14.5 25.7 0.00 1.47 1.40 91 1010.8
20260904193557 16 263 12.9 25.7 0.00 1.47 1.40 92 1010.8
20260904193101 16 244 11.3 25.7 0.00 1.47 1.40 92 1010.7
20260904192556 16 261 12.9 25.7 0.00 1.47 1.40 92 1010.8
20260904192056 16 268 11.3 22.5 0.00 1.47 1.40 92 1010.4
20260904191600 16 270 11.3 20.9 0.00 1.47 1.40 92 1010.5
20260904191057 16 277 9.7 22.5 0.00 1.47 1.40 93 1010.6
20260904190558 16 268 12.9 22.5 0.00 1.47 1.40 93 1010.6
20260904190108 16 275 12.9 25.7 0.00 1.47 1.40 93 1010.5
20260904185558 16 251 11.3 25.7 0.00 1.47 1.40 93 1010.4
20260904185057 16 295 11.3 27.4 0.00 1.47 1.40 93 1010.3
20260904184607 16 271 14.5 27.4 0.00 1.47 1.40 93 1010.2
20260904184058 16 267 14.5 27.4 0.00 1.47 1.40 93 1010.3
20260904183557 16 250 12.9 24.1 0.00 1.47 1.40 93 1010.3
20260904183101 16 252 14.5 27.4 0.00 1.47 1.40 93 1010.2
20260904182600 16 254 9.7 27.4 0.00 1.47 1.40 93 1010.3
20260904182056 16 258 16.1 25.7 0.00 1.47 1.40 93 1010.2
20260904181607 16 263 14.5 25.7 0.03 1.47 1.40 93 1009.9
20260904181057 16 269 12.9 27.4 0.05 1.47 1.40 94 1009.8
20260904180559 16 279 11.3 27.4 0.08 1.47 1.40 94 1009.9
20260904180113 16 262 16.1 27.4 0.08 1.47 1.40 94 1009.9
20260904175556 16 275 8.0 22.5 0.10 1.47 1.40 94 1009.9
20260904175057 16 277 12.9 22.5 0.10 1.47 1.40 94 1009.7
20260904174608 16 269 11.3 22.5 0.13 1.47 1.40 95 1009.5
20260904174057 16 266 12.9 25.7 0.15 1.47 1.40 95 1009.3
20260904173557 16 268 12.9 25.7 0.18 1.47 1.40 95 1009.3
20260904173105 16 279 8.0 17.7 0.18 1.47 1.40 95 1009.2
20260904172557 16 269 6.4 17.7 0.23 1.47 1.40 95 1009.1
20260904172058 16 263 8.0 14.5 0.23 1.45 1.40 95 1009.3
20260904171601 16 265 4.8 12.9 0.28 1.42 1.37 95 1009.3
20260904171056 16 273 4.8 12.9 0.36 1.40 1.35 95 1009.1
20260904170558 16 286 3.2 12.9 0.41 1.37 1.30 95 1009.2
20260904170110 16 261 3.2 12.9 0.46 1.37 1.30 94 1009.1
20260904165557 16 241 6.4 14.5 0.51 1.35 1.30 94 1008.8
20260904165057 16 265 6.4 20.9 0.56 1.35 1.30 94 1008.8
20260904164606 16 271 11.3 25.7 0.56 1.32 1.27 94 1008.8
20260904164057 16 273 9.7 25.7 0.56 1.30 1.24 94 1009.0
20260904163557 16 253 12.9 25.7 0.56 1.30 1.22 94 1009.0
20260904163109 16 290 12.9 29.0 0.58 1.27 1.22 94 1009.0
20260904162557 16 258 12.9 29.0 0.61 1.22 1.17 94 1008.9
20260904162057 16 273 14.5 29.0 0.61 1.22 1.14 93 1008.6
20260904161602 16 278 16.1 30.6 0.56 1.14 1.09 93 1008.7
20260904161056 16 249 17.7 35.4 0.46 1.04 0.99 93 1008.8
20260904160559 16 255 16.1 35.4 0.36 0.94 0.89 92 1009.0
20260904160106 16 256 16.1 32.2 0.28 0.89 0.84 92 1008.8
20260904155556 16 244 19.3 38.6 0.25 0.84 0.76 92 1008.7
20260904155058 16 273 22.5 38.6 0.20 0.79 0.74 92 1008.7
20260904154607 16 292 16.1 32.2 0.18 0.76 0.71 92 1008.5
20260904154058 16 284 16.1 32.2 0.18 0.74 0.69 92 1008.6
20260904153558 16 291 14.5 30.6 0.18 0.74 0.66 91 1008.8
20260904153106 16 250 14.5 27.4 0.18 0.66 0.61 90 1009.0
20260904152557 16 276 12.9 27.4 0.15 0.61 0.56 90 1008.9
20260904152059 16 281 16.1 30.6 0.15 0.58 0.53 90 1008.8
20260904151603 16 284 17.7 30.6 0.15 0.58 0.53 90 1008.7
20260904151056 16 267 14.5 27.4 0.15 0.58 0.53 90 1009.0
20260904150556 16 258 12.9 32.2 0.15 0.58 0.53 91 1009.0
20260904150105 16 279 12.9 38.6 0.15 0.58 0.53 90 1008.9
20260904145555 16 271 22.5 45.1 0.13 0.56 0.51 89 1009.3
20260904145057 16 280 22.5 45.1 0.13 0.56 0.51 89 1009.5
20260904144603 17 261 20.9 40.2 0.13 0.56 0.51 89 1009.6
20260904144101 17 281 11.3 40.2 0.10 0.56 0.48 90 1009.6
20260904143557 17 273 14.5 40.2 0.10 0.53 0.46 89 1009.8
20260904143100 17 270 20.9 40.2 0.08 0.48 0.43 89 1009.8
20260904142557 17 286 17.7 40.2 0.36 0.46 0.38 88 1009.5
20260904142057 17 315 14.5 32.2 0.36 0.43 0.36 89 1009.0
20260904141625 17 278 14.5 30.6 0.36 0.43 0.36 89 1009.1
20260904141056 17 248 12.9 30.6 0.36 0.43 0.36 89 1009.1
20260904140556 17 267 16.1 30.6 0.36 0.43 0.36 89 1008.9
20260904140106 17 234 14.5 24.1 0.36 0.43 0.36 89 1008.8
20260904135557 17 260 14.5 25.7 0.36 0.43 0.36 89 1008.5
20260904135058 17 238 17.7 32.2 0.36 0.43 0.36 89 1008.3
20260904134605 17 254 16.1 33.8 0.36 0.43 0.36 89 1008.4
20260904134057 18 269 17.7 38.6 0.36 0.43 0.36 86 1008.3
20260904133557 18 275 19.3 62.8 0.33 0.41 0.36 83 1008.3
20260904133100 21 306 29.0 62.8 0.30 0.38 0.33 72 1008.2
20260904132600 23 263 17.7 43.5 0.00 0.08 0.00 67 1007.4
20260904132057 24 275 27.4 49.9 0.00 0.08 0.00 66 1006.7
20260904131636 24 263 22.5 59.5 0.00 0.08 0.00 65 1006.6
20260904131057 25 299 27.4 61.2 0.00 0.08 0.00 64 1006.6
20260904130556 24 257 33.8 61.2 0.00 0.08 0.00 64 1006.7
20260904130105 24 248 27.4 51.5 0.00 0.08 0.00 64 1006.6
20260904125557 25 253 30.6 53.1 0.00 0.08 0.00 64 1006.6
20260904125057 25 252 19.3 54.7 0.00 0.08 0.00 64 1006.7
20260904124605 25 233 29.0 54.7 0.00 0.08 0.00 64 1006.7
20260904124057 24 247 27.4 53.1 0.00 0.08 0.00 65 1006.7
20260904123558 24 267 24.1 53.1 0.00 0.08 0.00 66 1006.9
20260904123110 24 276 27.4 51.5 0.00 0.08 0.00 66 1006.7
20260904122557 24 248 20.9 41.8 0.00 0.08 0.00 67 1007.0
20260904122101 24 290 25.7 45.1 0.00 0.08 0.00 66 1006.9
20260904121607 24 238 25.7 51.5 0.00 0.08 0.00 67 1007.0
20260904121057 23 268 19.3 51.5 0.00 0.08 0.00 69 1007.1
20260904120600 23 239 24.1 51.5 0.00 0.08 0.00 69 1007.2
20260904120114 23 246 24.1 48.3 0.00 0.08 0.00 69 1007.2
20260904115556 23 254 22.5 41.8 0.00 0.08 0.00 70 1007.2
20260904115058 23 273 22.5 43.5 0.00 0.08 0.00 70 1007.4
20260904114603 23 269 22.5 43.5 0.00 0.08 0.00 71 1007.5
20260904114057 22 235 22.5 37.0 0.00 0.08 0.00 71 1007.5
20260904113556 22 259 24.1 41.8 0.00 0.08 0.00 71 1007.7
20260904113110 22 257 20.9 41.8 0.00 0.08 0.00 72 1007.6
20260904112556 22 256 24.1 41.8 0.00 0.08 0.00 71 1007.6
20260904112057 22 257 17.7 43.5 0.00 0.08 0.00 71 1007.7
20260904111601 22 273 24.1 43.5 0.00 0.08 0.00 71 1007.8
20260904111058 22 263 19.3 38.6 0.00 0.08 0.00 71 1007.8
20260904110558 22 251 22.5 41.8 0.00 0.08 0.00 71 1007.9
20260904110116 22 221 20.9 41.8 0.00 0.08 0.00 71 1007.9
20260904105556 22 264 20.9 40.2 0.00 0.08 0.00 71 1007.8
20260904105056 22 244 19.3 48.3 0.00 0.08 0.00 71 1008.1
20260904104612 22 235 20.9 48.3 0.00 0.08 0.00 72 1008.0
20260904104058 22 241 19.3 45.1 0.00 0.08 0.00 72 1008.0
20260904103558 22 247 22.5 45.1 0.00 0.08 0.00 71 1008.0
20260904103108 22 280 19.3 35.4 0.00 0.08 0.00 72 1008.1
20260904102557 22 274 20.9 46.7 0.00 0.08 0.00 72 1008.1
20260904102057 22 238 22.5 46.7 0.00 0.08 0.00 72 1008.1
20260904101604 22 238 20.9 51.5 0.00 0.08 0.00 72 1008.2
20260904101056 22 223 22.5 51.5 0.00 0.08 0.00 72 1008.3
20260904100556 22 244 24.1 51.5 0.00 0.08 0.00 73 1008.1
20260904100111 22 261 22.5 40.2 0.00 0.08 0.00 73 1008.2
20260904095557 22 238 17.7 32.2 0.00 0.08 0.00 74 1008.4
20260904095056 22 275 16.1 33.8 0.00 0.08 0.00 74 1008.5
20260904094606 22 245 14.5 35.4 0.00 0.08 0.00 73 1008.7
20260904094057 22 262 16.1 40.2 0.00 0.08 0.00 74 1008.8
20260904093557 22 251 17.7 41.8 0.00 0.08 0.00 74 1008.9
20260904093109 22 227 22.5 41.8 0.00 0.08 0.00 74 1008.9
20260904092556 21 240 19.3 37.0 0.00 0.08 0.00 74 1009.0
20260904092100 21 255 12.9 30.6 0.00 0.08 0.00 74 1009.0
20260904091605 21 225 17.7 32.2 0.00 0.08 0.00 75 1008.9
20260904091056 21 267 14.5 46.7 0.00 0.08 0.00 75 1009.0
20260904090556 21 247 20.9 46.7 0.00 0.08 0.00 75 1009.1
20260904090106 21 213 14.5 30.6 0.00 0.08 0.00 75 1009.1
20260904085556 21 223 12.9 35.4 0.00 0.08 0.00 75 1009.2
20260904085056 21 250 16.1 37.0 0.00 0.08 0.00 75 1009.3
20260904084604 21 228 20.9 37.0 0.00 0.08 0.00 74 1009.4
20260904084055 21 230 17.7 27.4 0.00 0.08 0.00 74 1009.3
20260904083557 22 259 17.7 30.6 0.00 0.08 0.00 74 1009.5
20260904083102 22 267 12.9 30.6 0.00 0.08 0.00 75 1009.4
20260904082556 21 237 17.7 30.6 0.00 0.08 0.00 75 1009.4
20260904082057 21 245 16.1 30.6 0.00 0.08 0.00 76 1009.4
20260904081607 21 253 17.7 38.6 0.00 0.08 0.00 77 1009.6
20260904081056 21 237 19.3 38.6 0.00 0.08 0.00 78 1009.8
20260904080556 21 225 17.7 33.8 0.00 0.08 0.00 78 1009.9
20260904080112 21 239 16.1 29.0 0.00 0.08 0.00 79 1009.9
20260904075557 21 234 12.9 29.0 0.00 0.08 0.00 79 1010.0
20260904075057 21 254 14.5 32.2 0.00 0.08 0.00 79 1009.9
20260904074636 21 259 12.9 32.2 0.00 0.08 0.00 79 1009.9
20260904074058 21 277 12.9 32.2 0.00 0.08 0.00 79 1009.9
20260904073602 21 229 16.1 32.2 0.00 0.08 0.00 79 1009.8
20260904073101 21 201 14.5 29.0 0.00 0.08 0.00 80 1009.8
20260904072558 20 216 14.5 27.4 0.00 0.08 0.00 81 1009.8
20260904072058 20 247 17.7 27.4 0.00 0.08 0.00 81 1009.9
20260904071605 20 227 12.9 25.7 0.00 0.08 0.00 83 1010.0
20260904071057 20 217 12.9 25.7 0.00 0.08 0.00 83 1010.0
20260904070602 20 247 11.3 25.7 0.00 0.08 0.00 84 1010.2
20260904070108 20 249 12.9 24.1 0.00 0.08 0.00 84 1010.3
20260904065557 20 248 9.7 24.1 0.00 0.08 0.00 85 1010.3
20260904065058 20 235 9.7 29.0 0.00 0.08 0.00 85 1010.4
20260904064604 20 242 9.7 35.4 0.00 0.08 0.00 85 1010.3
20260904064100 19 261 19.3 35.4 0.00 0.08 0.00 84 1010.5
20260904063600 20 261 16.1 29.0 0.00 0.08 0.00 84 1010.6
20260904063111 19 212 14.5 27.4 0.00 0.08 0.00 84 1010.7
20260904062600 19 234 12.9 22.5 0.00 0.08 0.00 85 1010.5
20260904062057 19 195 9.7 20.9 0.00 0.08 0.00 85 1010.6
20260904061606 19 214 8.0 24.1 0.00 0.08 0.00 86 1010.7
20260904061057 18 231 11.3 24.1 0.00 0.08 0.00 87 1010.7
20260904060558 18 236 8.0 22.5 0.00 0.08 0.00 87 1010.9
20260904060113 18 213 4.8 22.5 0.00 0.08 0.00 87 1010.9
20260904055557 18 224 8.0 25.7 0.00 0.08 0.00 87 1011.0
20260904055057 18 234 11.3 25.7 0.00 0.08 0.00 88 1011.1
20260904054608 18 241 12.9 22.5 0.00 0.08 0.00 88 1011.1
20260904054058 18 229 9.7 20.9 0.00 0.05 0.00 89 1011.4
20260904053558 18 217 9.7 20.9 0.00 0.05 0.00 89 1011.4
20260904053101 17 201 11.3 20.9 0.00 0.05 0.00 89 1011.5
20260904052558 17 238 9.7 17.7 0.00 0.05 0.00 90 1011.5
20260904052059 17 268 6.4 16.1 0.00 0.05 0.00 90 1011.6
20260904051608 17 234 4.8 14.5 0.00 0.05 0.00 90 1011.6
20260904051057 17 230 6.4 14.5 0.00 0.05 0.00 90 1011.6
20260904050557 17 218 6.4 14.5 0.00 0.05 0.00 90 1011.6
20260904050108 17 220 4.8 12.9 0.00 0.05 0.00 90 1011.7
20260904045558 17 219 4.8 14.5 0.00 0.05 0.00 90 1011.6
20260904045059 17 225 4.8 14.5 0.00 0.05 0.00 90 1011.6
20260904044609 17 213 4.8 11.3 0.00 0.05 0.00 90 1011.7
20260904044101 17 220 4.8 14.5 0.00 0.05 0.00 90 1011.8
20260904043558 17 217 6.4 14.5 0.00 0.05 0.00 90 1011.9
20260904043100 17 219 4.8 11.3 0.00 0.05 0.00 89 1011.9
20260904042558 17 232 4.8 12.9 0.00 0.05 0.00 89 1012.0
20260904042057 17 232 4.8 12.9 0.00 0.05 0.00 89 1012.1
20260904041559 17 213 6.4 12.9 0.00 0.05 0.00 89 1012.2
20260904041057 17 225 6.4 16.1 0.00 0.05 0.00 89 1012.2
20260904040601 17 223 4.8 16.1 0.00 0.05 0.00 89 1012.2
20260904040110 17 223 4.8 12.9 0.00 0.05 0.00 89 1012.3
20260904035557 17 228 6.4 14.5 0.00 0.05 0.00 90 1012.5
20260904035058 17 203 8.0 14.5 0.00 0.05 0.00 90 1012.6
20260904034615 17 209 6.4 12.9 0.00 0.05 0.00 90 1012.6
20260904034057 17 222 4.8 12.9 0.00 0.05 0.00 90 1012.7
20260904033558 17 217 4.8 12.9 0.00 0.05 0.00 90 1012.8
20260904033100 16 225 4.8 14.5 0.00 0.05 0.00 90 1012.9
20260904032557 16 227 6.4 14.5 0.00 0.05 0.00 90 1013.0
20260904032057 16 221 4.8 12.9 0.00 0.05 0.00 90 1013.1
20260904031606 16 244 4.8 12.9 0.00 0.05 0.00 90 1013.1
20260904031057 16 221 6.4 12.9 0.00 0.05 0.00 90 1013.2
20260904030601 16 225 6.4 14.5 0.00 0.05 0.00 90 1013.2
20260904030106 16 225 4.8 14.5 0.00 0.05 0.00 91 1013.2
20260904025559 16 209 8.0 14.5 0.00 0.05 0.00 91 1013.3
20260904025057 16 221 4.8 12.9 0.00 0.05 0.00 90 1013.5
20260904024602 16 240 3.2 11.3 0.00 0.05 0.00 90 1013.5
20260904024058 16 215 4.8 11.3 0.00 0.05 0.00 90 1013.5
20260904023557 16 217 4.8 11.3 0.00 0.05 0.00 90 1013.6
20260904023107 16 194 3.2 11.3 0.00 0.05 0.00 90 1013.5
20260904022558 16 215 4.8 11.3 0.00 0.05 0.00 90 1013.7
20260904022058 16 214 4.8 8.0 0.00 0.05 0.00 90 1013.7
20260904021608 16 221 4.8 11.3 0.00 0.05 0.00 90 1013.9
20260904021057 16 202 4.8 11.3 0.00 0.05 0.00 90 1013.8
20260904020557 16 217 1.6 8.0 0.00 0.05 0.00 90 1013.9
20260904020107 16 214 3.2 8.0 0.00 0.05 0.00 89 1013.8
20260904015559 16 215 1.6 6.4 0.00 0.05 0.00 89 1013.9
20260904015057 16 216 3.2 8.0 0.00 0.05 0.00 89 1014.1
20260904014604 16 219 3.2 8.0 0.00 0.05 0.00 89 1014.0
20260904014057 16 218 1.6 8.0 0.00 0.05 0.00 89 1014.0
20260904013556 16 221 3.2 8.0 0.00 0.05 0.00 89 1014.0
20260904013105 16 225 1.6 9.7 0.00 0.05 0.00 89 1014.0